Content
SEND FEEDBACK

Daily
Averages
Monthly
Summary
Honduras

TEGUCIGALPA, HONDURAS


Home > Central America > Honduras
Elevation: 3260 feet     Latitude: 14 03N     Longitude: 087 13W

WEATHER
 
SELECT A DAY
Number of Records: 56,710;   Date Range: 7/9/96 - 9/30/14
 
SHARE

PRINT THIS DATA

[ ← Previous Day ]
WEATHER ALMANAC - JUNE 14, 2013
[ Next Day → ]
[ °C ]   °F
Weather ElementAverageHighLow
Temperature70.3 °F78 °F (12:00 pm)66 °F (3:00 am)
Dewpoint67.3 °F69.8 °F (11:00 am)66 °F (9:00 pm)
Humidity89.7 %100 % (12:00 am)66 % (12:00 pm)
Barometer30.03 in30.09 in (12:00 am)29.82 in (3:00 pm)
Wind Speed5.4 mph11.5 mph (10:00 am)
Wind Gust24.2 mph (8:00 pm)
Weather ElementAverage
Visibility5.7 mi
Wind DirectionESE (126.1 °)

Weather ElementTotal
Precipitation---
Cooling Degree Days7 (Base 65)
Growing Degree Days22 (Base 50)
Averaged from 30 records on June 14, 2013
WEATHER CONDITIONS BREAKOUT
WIND DIRECTION BREAKOUT
WEATHER BY HOUR - JUNE 14, 2013
[ °C ]   °F
Local TimeTemperatureDewpointHumidityBarometerVisibilityWind DirectionWind SpeedGust SpeedPrecipitationEventsConditions
12:00 AM66.2 °F66.2 °F100 %30.09 in6.2 miCalmMostly Cloudy
1:00 AM66.2 °F66.2 °F100 %30.06 in6.2 miCalmMostly Cloudy
2:00 AM66.2 °F66.2 °F100 %30.06 in6.2 miNorth (360°)3.5 mphMostly Cloudy
3:00 AM66.0 °F6.0 miCalm
3:00 AM66.2 °F66.2 °F100 %30.04 in6.2 miCalmMostly Cloudy
4:00 AM66.2 °F66.2 °F100 %30.01 in6.2 miCalmMostly Cloudy
5:00 AM66.2 °F66.2 °F100 %30.04 in6.2 miNNE (20°)5.8 mphMostly Cloudy
6:00 AM66.2 °F66.2 °F100 %30.04 in4.3 miNNE (20°)4.6 mphMostly Cloudy
7:00 AM68.0 °F68.0 °F100 %30.06 in4.3 miNorth (10°)6.9 mphMostly Cloudy
8:00 AM69.8 °F68.0 °F94 %30.06 in5.0 miNorth (10°)8.1 mphMostly Cloudy
9:00 AM70.0 °F68.0 °F91 %29.91 in5.0 miNorth10.4 mphMostly Cloudy
9:00 AM69.8 °F68.0 °F94 %30.09 in5.0 miNorth (360°)10.4 mphMostly Cloudy
10:00 AM69.8 °F68.0 °F94 %30.09 in5.0 miNorth (10°)11.5 mphMostly Cloudy
11:00 AM73.4 °F69.8 °F88 %30.09 in6.2 miNNW (330°)6.9 mphMostly Cloudy
12:00 PM77.0 °F68.0 °F74 %30.06 in6.2 miNorth (360°)4.6 mphMostly Cloudy
12:00 PM78.0 °F69.0 °F66 %29.85 in6.0 miNorth4.6 mphHaze
1:00 PM75.2 °F68.0 °F78 %30.04 in6.2 miNorth (10°)11.5 mphMostly Cloudy
2:00 PM75.2 °F68.0 °F78 %30.04 in6.2 miNorth (350°)11.5 mphMostly Cloudy
3:00 PM75.0 °F68.0 °F73 %29.82 in6.0 miNorth11.5 mphMostly Cloudy
3:00 PM75.2 °F68.0 °F78 %30.04 in6.2 miNorth (360°)11.5 mphMostly Cloudy
4:00 PM75.2 °F68.0 °F78 %30.01 in6.2 miNorth (360°)10.4 mphMostly Cloudy
5:00 PM77.0 °F66.2 °F69 %30.01 in6.2 miNorth (10°)6.9 mphMostly Cloudy
6:00 PM71.6 °F68.0 °F88 %30.04 in6.2 miNNW (330°)3.5 mphRainLight Rain
6:00 PM71.0 °F68.0 °F87 %29.85 in6.0 miNNW (330°)3.5 mphRainLight Rain
7:00 PM69.8 °F68.0 °F94 %30.04 in6.2 miSW (230°)3.5 mphMostly Cloudy
8:00 PM69.8 °F66.2 °F88 %30.09 in5.0 miENE (70°)11.5 mph24.2 mphRainLight Rain
9:00 PM67.0 °F66.0 °F96 %29.95 in5.0 miCalmRainLight Rain
9:00 PM68.0 °F66.2 °F94 %30.09 in5.0 miCalmRainLight Rain
10:00 PM66.2 °F66.2 °F100 %30.09 in5.0 miCalmScattered Clouds
11:00 PM66.2 °F66.2 °F100 %30.09 in6.2 miCalmScattered Clouds
Hourly data recorded from MHTG, located miles away from Tegucigalpa, Honduras







STORIES FROM OUR PARTNERS